Starlink 30839

operational
NORAD ID: 58209 Int'l Des: 2023-170 Owner: SPXS Country: US Constellation: starlink
LEOCIRCULAR

Über Starlink 30839

Beschreibung wird geladen...

Live-Position

3D-Globus wird geladen...

Nächste Überflüge

Höhenverlauf

Altitude vs Time

uPlot chart will show altitude changes over time

Zweizeiliger Elementsatz

1 58209U 23170D 25303.69598795 -.00000017 00000-0 13808-4 0 9991
2 58209 43.0021 182.3899 0001196 272.4915 87.5791 15.02535355110725
Epoch: 30. Okt. 2025 • Age: 22 hours

Aktueller Status

Höhe 558.3 km
Geschwindigkeit 7.59 km/s
Subsatellitenpunkt 14.62°N, 73.75°W
Startdatum 4. Nov. 2023
Alter 1.9 years
Typ internet

Technische Details

Klassifizierung Payload
Masse 730.00 kg
Trockenmasse 700.00 kg
Gesamtmasse 730.00 kg
Länge 0.30 m
Durchmesser 4.10 m
Spannweite 29.00 m
Form Box + pan
Hersteller SPXS
Bus-Typ Starlink V2M
Phasenstatus In Orbit
Besitzer/Staat SPXS/US

Große Konstellationen

Loading constellations...